User: anonymous   Login
Location: Unspecified
(0.0000°N, 0.0000°E)
Time: 21:04:34
(UTC+00:00)
Language:

BEIDOU IGSO 3 - Orbit

View from above orbital plane
View from above orbital plane
View from above satellite
View from above satellite

Ground track
Ground track

The orbit is defined by the following mean orbital elements,

1 37384U          26139.76799346 +.00000000 +00000-0 +00000-0 0 00000
2 37384  62.3699  40.4207 0033808 185.8234  35.8952  1.00273682    03
Epoch (UTC): 19 May 2026 18:25:54
Eccentricity: 0.0033808
inclination: 62.3699°
perigee height: 35644 km
apogee height: 35929 km
right ascension of ascending node: 40.4207°
argument of perigee: 185.8234°
revolutions per day: 1.00273682
mean anomaly at epoch: 35.8952°

The dashed part of the orbit path shows where the satellite is in the earth's shadow,  

DLR